Wind_Speed
6 10 12 14 14 14 15 20 19 20 20 23 22 20 20 20 21 21 21 22 22 23 23 23 22 23 23
9 12 13 15 15 19 23 21 21 21 20 17 17 20 20 20 19 21 21 21 21 21 21 22 23 22 23
7 13 15 16 18 20 22 25 22 20 14 13 20 20 21 20 20 20 20 19 20 22 22 23 23 22 21
9 12 13 15 17 21 24 24 23 24 14 17 22 22 21 18 19 20 20 20 22 20 20 20 21 21 21
11 9 12 16 19 20 20 23 23 10 14 27 28 27 21 23 24 21 21 21 20 20 19 21 22 22 23
9 9 15 17 20 18 18 18 10 9 29 26 26 28 24 28 25 23 19 19 19 19 21 22 22 23 23
10 11 16 17 16 20 21 18 18 25 24 21 25 26 30 32 25 16 11 19 22 21 22 23 22 23 23
8 12 13 13 16 17 17 20 21 20 22 14 21 25 28 30 15 10 10 22 22 19 21 23 23 22 22
9 11 10 13 13 17 19 17 15 20 21 10 17 29 24 16 12 6 22 25 22 22 23 21 20 19 21
14 15 13 15 15 14 16 17 15 10 4 18 18 16 11 8 9 28 29 23 23 24 20 16 17 21 23
18 18 16 20 18 18 14 16 17 15 24 19 15 19 12 21 19 25 20 27 29 26 19 19 22 21 25
17 15 18 23 23 21 19 18 17 20 21 19 17 20 20 22 22 20 26 24 25 27 20 30 27 26 20
15 17 19 22 24 24 22 19 20 19 18 17 17 20 22 22 24 25 27 24 23 17 33 29 32 28 30
19 20 21 20 21 25 24 19 21 25 22 18 19 19 23 21 23 27 23 15 27 30 28 30 29 25 25
20 21 19 19 21 23 19 20 22 19 23 27 22 21 22 23 27 23 26 24 28 28 27 25 25 26 27
22 22 20 21 22 21 23 22 20 21 23 27 27 24 22 16 16 24 25 28 28 28 26 23 27 27 29
20 22 23 21 20 25 22 20 20 21 25 26 24 23 9 9 16 12 25 30 30 25 25 23 26 31 30
Wind_Direction
318 340 353 352 351 350 343 337 334 332 331 326 326 326 323 319 316 314 312 310 309 307 305 304 308 307 308
320 344 350 352 346 345 340 339 335 333 324 324 329 326 324 321 319 318 318 314 311 310 306 304 305 308 308
327 332 337 346 341 339 336 333 330 331 319 320 327 326 320 318 317 318 319 320 316 314 310 306 304 306 308
328 325 332 343 336 336 326 331 326 331 321 321 326 328 328 322 318 318 319 317 316 311 320 320 315 312 309
336 318 335 337 334 329 320 324 320 309 315 328 330 333 337 334 329 326 318 313 310 307 319 317 315 311 308
333 331 324 323 325 325 324 321 327 323 326 318 329 329 333 331 324 317 316 314 307 310 318 315 308 311 313
313 322 319 326 321 322 326 323 311 314 324 309 324 322 329 327 322 313 321 328 318 313 312 310 308 311 308
318 323 318 320 320 323 324 322 317 320 327 304 324 320 319 326 327 300 306 331 323 318 312 309 307 306 305
315 320 317 323 330 323 335 335 329 327 330 325 320 317 318 322 327 266 315 319 318 318 314 310 310 308 305
323 329 330 333 337 333 331 329 329 326 313 332 317 337 317 308 298 303 318 320 316 317 316 312 316 314 310
325 330 330 333 337 336 330 325 315 279 304 314 307 314 300 307 306 308 313 314 319 321 322 325 320 314 308
329 326 330 337 336 335 328 319 309 299 307 310 296 302 300 302 301 306 312 310 311 311 319 321 318 318 309
320 319 327 332 332 332 329 322 318 312 313 314 305 307 306 296 295 302 309 313 309 314 321 322 316 316 314
331 323 321 320 329 331 322 321 314 308 316 321 316 311 306 299 296 297 300 297 306 314 313 312 315 313 311
323 325 309 298 315 329 322 312 309 303 304 316 320 317 312 307 296 292 295 298 307 312 308 306 303 304 309
322 317 311 300 310 319 315 317 305 305 303 313 317 315 314 307 290 296 300 301 305 308 308 299 302 306 309
318 319 319 312 312 317 314 309 302 300 302 314 309 303 302 299 300 298 301 300 301 300 300 294 292 298 304
Height
840 839 837 836 834 832 829 826 823 821 819 816 812 809 806 803 799 796 792 789 786 783 780 776 772 769 767
839 838 836 834 832 830 827 824 821 818 816 813 810 806 802 798 794 791 787 784 782 779 775 772 768 766 763
838 837 835 833 829 828 824 821 819 817 813 811 808 802 798 794 791 787 784 781 777 774 771 768 764 761 759
837 835 834 831 829 826 822 819 815 812 810 807 803 797 792 789 786 782 779 777 773 770 767 764 761 758 755
834 834 831 829 827 825 820 816 811 807 805 800 795 791 787 783 779 777 775 773 770 767 764 761 758 754 751
832 831 829 828 826 822 819 815 808 805 800 794 791 786 783 778 775 773 770 768 766 763 760 757 754 750 747
831 830 828 826 824 820 816 812 809 803 799 790 787 783 779 773 770 769 768 766 763 759 757 754 750 747 744
830 828 827 826 822 817 813 809 805 801 797 788 784 780 776 769 766 766 766 763 760 756 753 749 745 742 739
828 827 824 822 818 813 810 806 800 796 792 790 784 777 772 766 764 763 762 759 755 752 748 744 741 738 734
826 823 820 817 814 812 808 804 801 794 791 789 783 781 771 765 763 762 757 754 751 746 743 740 738 734 730
821 818 815 813 810 807 804 801 798 796 791 789 782 780 778 768 760 757 753 749 745 741 738 736 733 730 725
818 815 812 809 806 803 800 798 795 792 788 786 781 778 774 767 759 752 750 745 741 736 734 731 727 723 720
816 812 809 806 802 799 796 793 790 787 784 781 778 774 771 766 758 751 745 740 736 733 730 725 720 716 711
811 808 804 801 798 796 792 789 786 781 778 776 773 770 765 761 756 747 744 740 733 729 724 720 714 711 707
808 804 801 798 795 793 788 786 782 777 772 769 767 764 760 756 748 743 738 734 729 724 720 714 709 705 702
804 801 798 794 791 788 785 781 778 773 769 764 760 756 752 748 746 739 734 729 724 719 715 709 701 698 695
800 797 794 790 787 783 780 777 773 770 765 760 756 753 749 743 739 738 731 724 718 714 710 705 699 691 688